Skip Page Navigation
NASA JPL Caltech
NASA Logo - Jet Propulsion Laboratory + View the NASA Portal
+ Near-Earth Object (NEO) Program
Search JPL
JPL Home Earth Solar System Stars & Galaxies Technology
JPL Solar System Dynamics
BODIES ORBITS EPHEMERIDES TOOLS PHYSICAL DATA DISCOVERY FAQ SITE MAP
JPL Small-Body Database Browser
Search: [ help ]  
3748 Tatum (1981 JQ)
Classification: Main-belt Asteroid          SPK-ID: 2003748
Ephemeris | Orbit Diagram | Orbital Elements | Physical Parameters | Discovery Circumstances ]

[ hide orbit diagram ]
Orbit Diagram
Note: Make sure you have Java enabled on your browser to see the applet. This applet is provided as a 3D orbit visualization tool. The applet was implemented using 2-body methods, and hence should not be used for determining accurate long-term trajectories (over several years or decades) or planetary encounter circumstances. For accurate long-term ephemerides, please instead use our Horizons system.
Orbit Viewer

Additional Notes: the orbits shown in the applet are color coded. The planets are white lines, and the asteroid/comet is a blue line. The bright white line indicates the portion of the orbit that is above the ecliptic plane, and the darker portion is below the ecliptic plane. Likewise for the asteroid/comet orbit, the light blue indicates the portion above the ecliptic plane, and the dark blue the portion below the ecliptic plane.

Orbit Viewer applet originally written and kindly provided by Osamu Ajiki (AstroArts), and further modified by Ron Baalke (JPL).


Orbital Elements at Epoch 2456400.5 (2013-Apr-18.0) TDB
Reference: JPL 1 (heliocentric ecliptic J2000)
 Element Value Uncertainty (1-sigma)   Units 
e .1507286027022934 5.7788e-08  
a 2.534256240958708 1.4711e-08 AU
q 2.152271338869435 1.4685e-07 AU
i 5.97986107858367 9.1788e-06 deg
node 33.80210217245102 4.7919e-05 deg
peri 110.7013721543239 5.8821e-05 deg
M 39.34009865545084 3.0603e-05 deg
tp 2456239.469864707917
(2012-Nov-07.96986471)
0.00012539 JED
period 1473.581680942676
4.03
1.2831e-05
3.513e-08
d
yr
n .2443027113160782 2.1272e-09 deg/d
Q 2.91624114304798 1.6928e-08 AU
  Orbit Determination Parameters
   # obs. used (total)      1250  
   data-arc span      21450 days (58.73 yr)  
   first obs. used      1954-07-29  
   last obs. used      2013-04-20  
   planetary ephem.      DE405  
   SB-pert. ephem.      SB405-CPV-2  
   condition code      0  
   fit RMS      .48638  
   data source      ORB  
   producer      Otto Matic  
   solution date      2013-Apr-29 12:59:24  

Additional Information
 Earth MOID = 1.17255 AU 
 T_jup = 3.426 
[ show covariance matrix ]

Ephemeris | Orbit Diagram | Orbital Elements | Physical Parameters | Discovery Circumstances ]

Physical Parameter Table
Parameter Symbol Value Units Sigma Reference Notes
absolute magnitude H 12.7 mag n/a PDS3 (MPC 28110)  
rotation period rot_per 58.21 h n/a Asteroid Lightcurve DataBase (Rev. 2013-May-01) Result based on less than full coverage, so that the period may be wrong by 30 percent or so.
Published Reference List:
[Brinsfield, J.W.; Higgins, D. (2010) Minor Planet Bul. 37, 21.]

3748 Tatum (1981 JQ)          Discovered 1981-May-03 by Bowell, E. at Flagstaff (AM) (688)
Discovered at the Anderson Mesa station, which is operated by the Lowell Observatory.
Reference: DISCOVERY.DBLast Updated: 2003-08-29

Alternate Designations
 1981 JQ = 1979 VT2 = 1983 VB4 = 1985 GN1 
Ephemeris | Orbit Diagram | Orbital Elements | Physical Parameters | Discovery Circumstances ]
ABOUT SSD CREDITS/AWARDS PRIVACY/COPYRIGHT GLOSSARY LINKS
FirstGov 2013-May-21 12:04 UT
(server date/time)  
NASA Home Page
Site Manager:   Donald K. Yeomans
Webmaster  Alan B. Chamberlin